OBJECT D (43761 NORAD) Tracking and Keplerian Element Data

This shows tracking and keplerian element data for the satellite.

Feedback or suggestion? Click here.




ElementValue
Catalog43761
NameOBJECT D
Epoch Orbit1406
Epoch Day66.92580424
Epoch Year2019
RAAN140.1372
Inclination97.7572
Eccentricity0.0013359
Argument of Perigee313.5997
Mean Anonmoly46.4114
Mean Motion14.94976374
Decay Rate2.3E-07
L11 43761U 18099D 19066.92580424 .00000023 00000-0 73961-5 0 9990
L22 43761 97.7572 140.1372 0013359 313.5997 46.4114 14.94976374 14061

Live tracking and technical data element details for OBJECT D (NORAD 43761). OBJECT D can be tracked NOW for your location showing map with azimuth and elevation plus other details from your city location.

Track the satellite on the map from your city or location and see movement details for azimuth, elevation, latitude, longitude, range, height, and movement on the map or in text.







IsCatalogInMostPopularTable: catalog: 43761, numindb: 104
Update: records affected: 1



GetName: 43761 OBJECT D

Hit Count: updated at: Wed, 17 Jul 2019 08:59:06 GMT